User: anonymous   Login
Location: Sternwarte Stuttgart
(48.7670°N, 9.1830°E)
Time: 15:53:15
(UTC+01:00)
Language:

USA 234 - Orbit

View from above orbital plane
View from above orbital plane
View from above satellite
View from above satellite

Ground track
Ground track

The orbit data is extracted from the following two-line orbital elements,

1 38109U 12014A   19316.15743392 0.00000000  00000-0  00000-0 0    06
2 38109 122.9994 199.8446 0002708 117.5357 242.4643 13.41422035    06
Epoch (UTC): 12 November 2019 03:46:42
Eccentricity: 0.0002708
inclination: 122.9994°
perigee height: 1102 km
apogee height: 1106 km
right ascension of ascending node: 199.8446°
argument of perigee: 117.5357°
revolutions per day: 13.41422035
mean anomaly at epoch: 242.4643°
orbit number at epoch: 0

The dashed part of the orbit path shows where the satellite is in the earth's shadow,  

DLR